York, PA

5:43 AM EST on December 13, 2019 (GMT -0500)
York

Weather History for KTHV - October, 2019

Change the Weather History Date:

Wednesday, October 9, 2019

  Actual Average Record
Temperature  
Mean Temperature 55 °F -  
Max Temperature 66 °F 0 °F 89 °F (2007)
Min Temperature 46 °F - 21 °F (2001)
Degree Days  
Heating Degree Days 10    
Growing Degree Days 5 (Base 50)    
Moisture  
Dew Point 45 °F    
Average Humidity 68    
Maximum Humidity 83    
Minimum Humidity 46    
Precipitation  
Precipitation 0.03 in - - ()
Sea Level Pressure  
Sea Level Pressure 30.26 in    
Wind  
Wind Speed 4 mph ()    
Max Wind Speed 12 mph    
Max Gust Speed -    
Visibility 10.0 miles    
Events Rain    
Averages and records for this station are not official NWS values.
T = Trace of Precipitation, MM = Missing Value Source: Averaged Metar Reports

Daily Weather History Graph

Daily Weather History Graph

Search for Another Location

Airport or City:

Astronomy

Oct. 09, 2019 Rise Set
Actual Time 7:11 AM EDT 6:37 PM EDT
Civil Twilight 6:44 AM EDT 7:04 PM EDT
Nautical Twilight 6:13 AM EDT 7:35 PM EDT
Astronomical Twilight 5:41 AM EDT 8:07 PM EDT
Moon 5:07 PM EDT (10/9) 2:56 AM EDT (10/9)
Length of Visible Light 12h 20m
Length of Day
11h 26m
Waxing Gibbous, 85% of the Moon is Illuminated
Oct 9
Waxing Gibbous
Oct 13
Full
Oct 21
Last Quarter
Oct 27
New
Nov 4
First Quarter

Hourly Weather History & Observations

Time (EDT) Temp. Dew Point Humidity Pressure Visibility Wind Dir Wind Speed Gust Speed Precip Events Conditions
12:53 AM 55.0 °F 46.9 °F 74% 30.24 in 10.0 mi Calm Calm - N/A   Clear
1:53 AM 55.9 °F 45.0 °F 67% 30.22 in 10.0 mi NE 8.1 mph - N/A   Mostly Cloudy
2:53 AM 55.0 °F 46.0 °F 72% 30.23 in 10.0 mi Calm Calm - 0.00 in   Overcast
3:53 AM 53.1 °F 48.0 °F 83% 30.23 in 10.0 mi West 3.5 mph - 0.00 in   Overcast
4:53 AM 53.1 °F 48.0 °F 83% 30.23 in 10.0 mi North 3.5 mph - 0.02 in Rain Light Rain
5:53 AM 53.1 °F 46.9 °F 80% 30.24 in 10.0 mi Variable 3.5 mph - 0.00 in Rain Light Rain
6:53 AM 53.1 °F 46.9 °F 80% 30.25 in 10.0 mi East 8.1 mph - 0.01 in   Overcast
7:53 AM 54.0 °F 46.9 °F 77% 30.27 in 10.0 mi Calm Calm - N/A   Overcast
8:53 AM 54.0 °F 48.9 °F 83% 30.27 in 10.0 mi Calm Calm - 0.00 in Rain Light Rain
9:53 AM 55.9 °F 45.0 °F 67% 30.30 in 10.0 mi ENE 8.1 mph - 0.00 in   Overcast
10:53 AM 57.0 °F 45.0 °F 64% 30.30 in 10.0 mi NE 9.2 mph - N/A   Overcast
11:53 AM 59.0 °F 45.0 °F 60% 30.29 in 10.0 mi East 11.5 mph - N/A   Overcast
12:53 PM 62.1 °F 46.0 °F 56% 30.27 in 10.0 mi ENE 10.4 mph - N/A   Clear
1:53 PM 63.0 °F 46.9 °F 56% 30.25 in 10.0 mi East 9.2 mph - N/A   Clear
2:53 PM 64.9 °F 46.0 °F 50% 30.23 in 10.0 mi ENE 10.4 mph - N/A   Clear
3:53 PM 64.9 °F 46.0 °F 50% 30.22 in 10.0 mi ESE 10.4 mph - N/A   Clear
4:53 PM 64.0 °F 43.0 °F 46% 30.22 in 10.0 mi East 9.2 mph - N/A   Clear
5:53 PM 62.1 °F 43.0 °F 50% 30.23 in 10.0 mi ENE 10.4 mph - N/A   Clear
6:53 PM 57.9 °F 45.0 °F 62% 30.25 in 10.0 mi ENE 6.9 mph - N/A   Clear
7:53 PM 55.0 °F 43.0 °F 64% 30.26 in 10.0 mi ENE 5.8 mph - N/A   Clear
8:53 PM 52.0 °F 42.1 °F 69% 30.27 in 10.0 mi Calm Calm - N/A   Clear
9:53 PM 46.9 °F 42.1 °F 83% 30.28 in 10.0 mi WNW 3.5 mph - N/A   Mostly Cloudy
10:53 PM 53.1 °F 44.1 °F 71% 30.29 in 10.0 mi ENE 6.9 mph - N/A   Mostly Cloudy
11:53 PM 52.0 °F 45.0 °F 77% 30.29 in 10.0 mi Calm Calm - N/A   Mostly Cloudy